Regional Weather Roundup
Issued by NWS

Home | Current Version | Previous Version | Text Only | Print | Product List | Glossary On
Versions: 1 2 3 4 5 6 7 8 9 10 11 12 13 14 15 16 17 18 19 20 21 22 23 24 25 26 27 28 29 30 31 32 33 34 35 36 37 38 39 40 41 42 43 44 45 46 47 48 49 50
000
ASUS43 KLSX 282159
RWRMO

WEATHER SUMMARY FOR MISSOURI
NATIONAL WEATHER SERVICE SPRINGFIELD MO
500 PM CDT THU AUG 28 2014

NOTE: "FAIR" INDICATES FEW OR NO CLOUDS BELOW 12,000 FEET WITH NO
       SIGNIFICANT WEATHER AND/OR OBSTRUCTIONS TO VISIBILITY.
       CURRENT SKY AND/OR WEATHER CONDITIONS ARE NOT AVAILABLE FOR
       CHILLICOTHE AND FARMINGTON.

MOZ001>031-035>038-043-044-053-054-282300-
...NORTHERN AND WESTERN MISSOURI...

CITY           SKY/WX    TMP DP  RH WIND       PRES   REMARKS
KANSAS CTY INT MOSUNNY   91  68  46 S16       29.87F HX  95
KANSAS C DTWN  MOSUNNY   93  67  42 S12G21    29.86F HX  96
LEE`S SUMMIT   MOSUNNY   90  67  46 S8        29.90F HX  93
ST JOSEPH      MOSUNNY   88  71  57 S9        29.86S HX  94
KIRKSVILLE     MOSUNNY   83  74  74 E7        29.95F

$$
MOZ066>068-077>081-088>096-101>105-282300-
...SOUTHWEST MISSOURI...

CITY           SKY/WX    TMP DP  RH WIND       PRES   REMARKS
SPRINGFIELD    MOSUNNY   94  57  28 S13       29.93F HX  92
JOPLIN         MOSUNNY   93  59  31 S13       29.92F HX  92

$$
MOZ032>034-039>042-045>050-055>058-069>072-282300-
...CENTRAL MISSOURI...

CITY           SKY/WX    TMP DP  RH WIND       PRES   REMARKS
COLUMBIA       MOSUNNY   92  67  43 S9        29.93F HX  95
JEFFERSON CITY MOSUNNY   93  67  42 SW8       29.90F HX  96
ROLLA          PTSUNNY   92  64  39 S10       29.93F HX  93
SEDALIA        MOSUNNY   93  67  42 S9        29.92F HX  96
OSAGE BEACH    PTSUNNY   93  63  36 SE7       29.92F HX  94

$$
MOZ051-052-059>065-282300-
...EAST CENTRAL MISSOURI...

CITY           SKY/WX    TMP DP  RH WIND       PRES   REMARKS
ST LOUIS INTL  MOSUNNY   90  71  53 SE9       29.95S HX  96
SPIRIT OF STL  PTSUNNY   86  70  58 S7G25     29.95R THUNDER HX  90
ST CHARLES     SUNNY     88  74  63 E9        29.93F HX  96

$$
MOZ072>076-082>087-097>100-106>115-282300-
...SOUTH CENTRAL AND SOUTHEAST MISSOURI...

CITY           SKY/WX    TMP DP  RH WIND       PRES   REMARKS
CAPE GIRARDEAU PTSUNNY   81  73  76 S8        29.95S
FARMINGTON     PTSUNNY   91  66  43 SE3       29.97F HX  94
POPLAR BLUFF   SUNNY     91  66  43 SW6       29.93F HX  93
WEST PLAINS    SUNNY     91  61  36 S9        29.97F HX  91

$$



USA.gov is the U.S. government's official web portal to all federal, state and local government web resources and services.